EDT,Max TemperatureF,Mean TemperatureF,Min TemperatureF,Max Dew PointF,MeanDew PointF,Min DewpointF,Max Humidity, Mean Humidity, Min Humidity, Max Sea Level PressureIn, Mean Sea Level PressureIn, Min Sea Level PressureIn, Max VisibilityMiles, Mean VisibilityMiles, Min VisibilityMiles, Max Wind SpeedMPH, Mean Wind SpeedMPH, Max Gust SpeedMPH,PrecipitationIn, CloudCover, Events, WindDirDegrees
2013-4-1,60,47,33,43,36,10,100,65,29,29.89,29.68,29.59,10,6,2,25,9,36,T,5,Rain,290
2013-4-2,42,36,29,17,12,7,58,42,25,30.05,29.96,29.90,10,10,10,28,13,37,0.00,2,,270
2013-4-3,46,38,30,16,12,8,53,39,24,30.28,30.12,30.04,10,10,10,22,12,32,0.00,2,,288
2013-4-4,56,39,22,28,18,12,74,48,22,30.37,30.21,30.04,10,10,10,15,5,21,0.00,0,,220
2013-4-5,62,49,36,28,21,18,60,41,21,30.02,29.87,29.70,10,10,10,20,7,29,0.00,0,,298
2013-4-6,51,42,32,20,11,3,56,36,15,30.27,30.20,30.00,10,10,10,20,7,25,0.00,0,,346
2013-4-7,59,48,37,42,31,21,77,52,26,30.26,30.11,29.96,10,10,10,23,8,29,0.00,2,,167
2013-4-8,71,54,36,42,39,36,93,61,29,30.08,30.01,29.96,10,9,6,10,3,14,0.00,1,,344
2013-4-9,75,62,48,49,43,37,93,59,25,29.96,29.91,29.88,10,10,6,22,6,29,T,2,,299
2013-4-10,65,57,49,55,50,42,100,81,61,29.96,29.90,29.79,10,8,2,28,4,37,0.26,7,Rain-Thunderstorm,352
2013-4-11,55,47,38,54,37,25,100,73,46,30.09,29.97,29.81,10,10,3,17,9,22,T,8,Rain,9
2013-4-12,43,41,38,39,36,30,92,84,76,30.06,29.88,29.75,10,8,2,14,6,23,0.36,8,Rain,47
2013-4-13,57,47,37,38,35,32,92,66,40,29.93,29.85,29.78,10,10,10,16,3,22,T,7,,281
2013-4-14,53,44,34,36,29,24,85,60,35,30.22,30.06,29.94,10,10,10,20,6,25,0.00,5,,315
2013-4-15,62,48,33,33,30,27,82,57,32,30.36,30.30,30.23,10,10,10,12,3,17,0.00,1,,166
2013-4-16,66,56,45,53,44,29,86,68,49,30.35,30.22,30.07,10,10,10,16,6,25,0.01,7,,161
2013-4-17,66,54,42,55,42,33,86,58,29,30.29,30.19,30.10,10,8,2,16,6,22,0.03,3,Rain,15
2013-4-18,62,49,36,48,39,31,85,59,33,30.34,30.24,30.09,10,10,3,17,6,23,0.01,6,Rain,149
2013-4-19,74,63,52,63,58,49,93,79,64,30.06,29.77,29.58,10,8,2,22,9,32,0.39,8,Rain-Thunderstorm,193
2013-4-20,59,49,38,50,36,19,96,63,30,30.30,29.89,29.68,10,8,2,22,9,30,0.26,5,Rain,298
2013-4-21,52,42,31,27,21,18,70,48,26,30.62,30.52,30.34,10,10,10,17,6,26,0.00,0,,358
2013-4-22,59,46,32,34,28,23,85,58,30,30.68,30.58,30.49,10,10,10,16,5,22,0.00,0,,113
2013-4-23,53,43,32,39,34,28,89,76,62,30.50,30.34,30.13,10,10,9,12,5,14,0.00,5,,17
2013-4-24,74,53,31,49,42,31,100,69,38,30.10,29.92,29.76,10,9,6,15,6,21,0.00,0,,180
2013-4-25,63,50,37,51,30,19,77,48,19,30.25,30.11,29.83,10,10,6,22,6,29,0.00,1,,293
2013-4-26,64,48,32,36,31,27,89,61,32,30.42,30.35,30.26,10,10,7,14,4,20,0.00,0,,16
2013-4-27,68,50,32,35,29,23,82,51,20,30.43,30.35,30.25,10,10,10,10,2,15,0.00,0,,45
2013-4-28,73,56,38,40,34,27,85,56,27,30.29,30.23,30.16,10,10,10,14,4,23,0.00,0,,161
2013-4-29,58,55,51,45,42,30,71,55,38,30.22,30.20,30.18,10,10,9,10,3,16,T,7,Rain,150
2013-4-30,71,58,44,45,36,25,80,52,23,30.32,30.26,30.20,10,10,10,14,3,20,0.00,4,,160